Regional Weather Roundup
Issued by NWS

Home | Current Version | Previous Version | Text Only | Print | Product List | Glossary On
Versions: 1 2 3 4 5 6 7 8 9 10 11 12 13 14 15 16 17 18 19 20 21 22 23 24 25 26 27 28 29 30 31 32 33 34 35 36 37 38 39 40 41 42 43 44 45 46 47 48 49 50
000
ASHW40 PHFO 302243
RWRHI

WEATHER ROUNDUP FOR HAWAII
NATIONAL WEATHER SERVICE HONOLULU HI
1200 PM HST THU JUL 30 2015

THIS IS AN AUTOMATED REPORT THAT HAS NOT BEEN QUALITY CONTROLLED.

NOTE..."FAIR" INDICATES FEW OR NO CLOUDS BELOW 12,000 FEET WITH NO
SIGNIFICANT WEATHER AND/OR OBSTRUCTIONS TO VISIBILITY.

* - THESE SITES REPORT LIMITED FIELDS

HIZ001>004-302300-
KAUAI-NIIHAU-

CITY           SKY/WX    TMP DP  RH WIND       PRES   REMARKS
LIHUE APT      CLOUDY    85  72  65 NE12      30.03S HX  91
PORT ALLEN*    NOT AVBL
POIPU*           N/A     86 N/A N/A NE8G17      N/A
PRINCEVILLE*     N/A     81 N/A N/A MISG        N/A
KOKOLE POINT*  NOT AVBL
MOLOAA DAIRY*  NOT AVBL
WAIMEA HTS*      N/A     93  68  43 E10G18      N/A  HX  97
PUU OPAE*        N/A     84  64  51 SE8G16      N/A
PUU LUA*       NOT AVBL
MAKAHA RIDGE*    N/A     82  68  61 N3          N/A
$$

HIZ005>011-302300-
OAHU-

CITY           SKY/WX    TMP DP  RH WIND       PRES   REMARKS
HONOLULU       MOSUNNY   90  70  51 NE18G26   29.98S HX  95
KALAELOA       PTSUNNY   89  68  49 E9G20     29.99S HX  93
KANEOHE MCB    PTSUNNY   84  73  69 NE12G17   29.98S HX  90
WHEELER FIELD  MOSUNNY   86  64  48 E10G18    30.03
BELLOWS*         N/A    N/A N/A N/A NE15        N/A
KAHUKU*          N/A    N/A N/A N/A E9G20       N/A
WHEELER*       NOT AVBL
WAIANAE HARBOR NOT AVBL
DILLINGHAM*      N/A     91  68  46 MISG        N/A  HX  95
KAHUKU TRN*      N/A     75  63  64 E9G21       N/A
KAWAILOA*        N/A     81  68  65 E13G20      N/A
KII*             N/A     82  73  74 E13G18      N/A
MAKUA RANGE*     N/A     88  72  58 W6G12       N/A  HX  94
OAHU FOREST NW   N/A     72  72 100 CALM        N/A
SCHOFIELD BRK*   N/A     70  52  52 MISG        N/A
SCHOFIELD S*   NOT AVBL
WAIANAE VLY*     N/A     93  68  43 MISG        N/A  HX  97
KUAOKALA*        N/A     81  70  69 NE12G26     N/A
HONOULIUULI*   NOT AVBL
MOKUOLOE IS*     N/A    N/A N/A N/A MISG        N/A
PALEHUA*         N/A     81  64  57 NE6G21      N/A
WAIAWA PHB*    NOT AVBL
$$

HIZ012>013-302300-
MOLOKAI-

CITY           SKY/WX    TMP DP  RH WIND       PRES   REMARKS
MOLOKAI AIRPT  SUNNY     85  72  65 NE16G26   29.99S HX  91
KALAUPAPA      NOT AVBL
MAKAPULAPAI*     N/A     86  73  66 E18G26      N/A  HX  93
MOLOKAI 1*       N/A     84  73  70 E2G12       N/A  HX  91
PUU ALII*        N/A     67  66  98 CALM        N/A
$$

HIZ016-302300-
KAHOOLAWE-

CITY           SKY/WX    TMP DP  RH WIND       PRES   REMARKS
KAHOOLAWE*       N/A     81 N/A N/A E24G36      N/A
HAKIOAWA*        N/A     83  73  70 MISG      30.39
HONOKANAIA*      N/A     87  71  57 NE18G39   29.98F HX  92
KANELOA*         N/A     82  72  69 NE26G40   30.02F
KEALIALALO*      N/A     84  72  65 E23G41    29.96F
LUA MAKIKA*    NOT AVBL
$$

HIZ014>015-302300-
LANAI-

CITY           SKY/WX    TMP DP  RH WIND       PRES   REMARKS
LANAI CITY     CLOUDY    81  72  74 NW9       30.04R
LANAI 1*         N/A    N/A N/A N/A NE17G26     N/A
$$

HIZ017>028-302300-
MAUI-

CITY           SKY/WX    TMP DP  RH WIND       PRES   REMARKS
KAHULUI        MOSUNNY   91  71  51 E18G29    29.96S HX  97
KAPALUA-W MAUI MOSUNNY   88  70  55 E13G20    29.99  HX  92
HANA AIRPORT   LGT RAIN  82  73  74 E8G21     30.03S
HANA*            N/A     82 N/A N/A E7G21       N/A
HALEAKALA SUMM NOT AVBL
MAALAEA BAY*   NOT AVBL
HALEAKALA*     NOT AVBL
KAUPO GAP*       N/A     79  57  47 N7G26       N/A
KULA 1*          N/A     69  61  76 NW7         N/A
$$

HIZ023>026-302300-
BIG ISLAND OF HAWAII COAST AND LOWER SLOPES-

CITY           SKY/WX    TMP DP  RH WIND       PRES   REMARKS
KAILUA KONA    SUNNY     88  73  61 S13       29.93R HX  95
HILO           PTSUNNY   83  75  77 NE7       30.00S HX  90
HONOKAA*       NOT AVBL
KAWAIHAE MWT*    N/A     84 N/A N/A W13         N/A
KAWAIHAE*        N/A     82 N/A N/A W10         N/A
SOUTH POINT*     N/A     81 N/A N/A NE21G29     N/A
UPOLU AIRPORT*   N/A    N/A N/A N/A E20G29      N/A
KAMUELA*       PTCLDY    75  72  88 NE24      30.07S
HAKALAU*         N/A     67  63  88 SE5G12      N/A
KALOKO-HONOKO*   N/A     90  72  55 S8        29.92F HX  96
PALI 2*          N/A     81  66  61 NE18G26     N/A
KEALAKOMO*       N/A     81  66  61 E17G28      N/A
KAUPULEHU*       N/A     90  68  48 SW12G22     N/A  HX  93
KAPAPALA*        N/A     80  71  75 E12G26      N/A
LOWER KAHUKU*    N/A     70  68  94 NE3G15      N/A
PUHE CS*         N/A     86  72  62 W9G17       N/A  HX  92
PUHO CS*         N/A     85  73  66 SW3         N/A  HX  91
PTA KEAMUKU*     N/A     77  66  69 CALM        N/A
WAIKOLOA*        N/A     82  68  61 NW10G24     N/A
$$

HIZ027>028-302300-
BIG ISLAND OF HAWAII INTERIOR AND SUMMMITS-

CITY           SKY/WX    TMP DP  RH WIND       PRES   REMARKS
BRADSHAW FIELD SUNNY     78  48  35 S20G33    30.28S
MK VISITOR CEN NOT AVBL
MAUNA KEA*     NOT AVBL
MAUNA LOA*       N/A     63  14  15 MISG        N/A
MAUNA LOA 1*   NOT AVBL
PTA KIPUKA*      N/A     73  59  60 NW8G17      N/A
PTA RANGE 17*    N/A     61  43  51 W8G23       N/A
PTA WEST*        N/A     75  64  69 NW13G20     N/A
NENE CABIN*      N/A     61 N/A N/A E10G20      N/A
AHUMOA*          N/A     65  60  85 W9          N/A
PTA PORTABLE*  NOT AVBL
PUU MALI*        N/A     72  61  68 W10G16      N/A
$$

HIC003-302300-
NORTHWEST ISLANDS-

CITY           SKY/WX    TMP DP  RH WIND       PRES   REMARKS
MIDWAY ISLAND  PTSUNNY   81  73  78 NE9       30.04R
MIDWAY NOS*    NOT AVBL
FRENCH FRIGATE NOT AVBL
$$

PHZ110>124-180-302300-
BUOY REPORTS

STATION/POSITION TIME  TEMP    WIND        PRES    WAVE   SWELL
                       AIR SEA DIR/SP/G            HT/PER HT/DIR
                 (UTC) (F)     (DEG/KT/KT) (MB)    (FT/S) (FT/D)
BUOY 51001       NOT AVBL
BUOY 51101       2200   81 81  110/ 12/ 14 1017.2R   5/ 9   5/140
BUOY 51100       NOT AVBL
BUOY 51002       2200   81 82   90/ 16/ 17 1012.8S   7/ 7   3/160
BUOY 51003       2200   82 83   80/ 16/ 17 1014.7R   6/ 7   3
BUOY 51004       2134   81 81   70/ 19/ 23 1013.0F   8/ 8   3/150
BARBERS PT BUOY  NOT AVBL
WAIMEA BAY BUOY  2200      81                N/A     4/ 6
KAILUA BAY BUOY  2200      80                N/A     5/ 7   2/110
LANAI BUOY       NOT AVBL
BARBERS PT 2     2200      82                N/A     4/12   2/200
PAUWELA MAUI     2200      80                N/A     5/ 7
HILO             NOT AVBL
KANEOHE BAY BUOY 2200      80                N/A     4/ 6
HANALEI KAUAI    2200      81                N/A     4/ 6   2/ 80
KAHULUI HARBOR   2200   84 82   60/ 18/ 24 1014.3F
HONOLULU HARBOR  2200   85 82   50/  9/ 14 1015.3F
KILO NALU        NOT AVBL
HILO HARBOR      2200   83 77   80/  6/  9 1015.4F
MOKUOLOE         2200   84 84   90/ 12/ 17 1016.2S
NAWILIWILI       2200   81 83   70/ 11/ 14 1016.4F
WHOTS BUOY       NOT AVBL
BUOY 51028       NOT AVBL
$$

......................KEY........................................
  SKY/WX - SKY CONDITIONS/PRESENT WEATHER
  TMP    - TEMPERATURE IN FAHRENHEIT
  DWPT   - DEWPOINT IN FAHRENHEIT
  RH     - RELATIVE HUMIDITY IN PERCENT
  WIND   - DIRECTION AND SPEED /MPH FOR ISLANDS...KTS FOR BUOYS/
  PRES   - MEAN SEA LEVEL PRESSURE IN INCHES OF HG
  VSB    - VISIBILITY IN MILES
  HX     - HEAT INDEX
  WCI    - WIND CHILL INDEX
  VRB    - VARIABLE WIND DIRECTION
  N/A    - NOT AVAILABLE


USA.gov is the U.S. government's official web portal to all federal, state and local government web resources and services.